Regional Weather Roundup
Issued by NWS

Home | Current Version | Previous Version | Text Only | Print | Product List | Glossary On
Versions: 1 2 3 4 5 6 7 8 9 10 11 12 13 14 15 16 17 18 19 20 21 22 23 24 25 26 27 28 29 30 31 32 33 34 35 36 37 38 39 40 41 42 43 44 45 46 47 48 49 50
000
ASUS43 KMPX 070310
RWRMN
WEATHER ROUNDUP FOR MINNESOTA
NATIONAL WEATHER SERVICE TWIN CITIES/CHANHASSEN MN
900 PM CST FRI MAR 06 2015


NOTE: "FAIR" INDICATES FEW OR NO CLOUDS BELOW 12,000 FEET WITH NO
SIGNIFICANT WEATHER AND/OR OBSTRUCTIONS TO VISIBILITY. N/A MEANS
CURRENT SKY AND/OR WEATHER CONDITIONS ARE NOT AVAILABLE.

MNZ060>063-068>070-070400-
   Twin Cities Metro

CITY           SKY/WX    TMP DP  RH WIND       PRES   REMARKS
TWIN CITIES    PTCLDY    29  17  61 SW6       30.08R WCI  23
ST PAUL        CLEAR     28  17  63 W6        30.09R WCI  22
BLAINE         CLEAR     30  19  64 W5        30.06S WCI  25
LAKEVILLE      CLEAR     27  19  74 W6        30.08R WCI  20
EDEN PRAIRIE   CLEAR     27  17  66 W5        30.07R WCI  22
SOUTH ST PAUL  CLEAR     29  19  63 W5        30.07S WCI  24
LAKE ELMO      FAIR      27  18  69 SW3       30.07S
$$
MNZ001>005-007-008-013>017-022>024-027-028-070400-
   Northwest Minnesota

CITY           SKY/WX    TMP DP  RH WIND       PRES   REMARKS
BEMIDJI        MOCLDY    28  15  59 SW7       29.89F WCI  20
HALLOCK        CLOUDY    32  30  93 S7        29.85F WCI  26
ROSEAU         CLOUDY    30  23  74 SW14      29.83F WCI  20
WARROAD        MOCLDY    28  21  74 SW16G22   29.83F WCI  17
THIEF RVR FALL CLOUDY    32  27  80 SW15G21   29.88F WCI  22
CROOKSTON      MIX PCPN  34  28  80 SW9       29.90F WCI  26
FOSSTON        CLOUDY    28  21  74 S16       29.90F WCI  17
DETROIT LAKES  PTCLDY    32  23  69 S9        29.93F WCI  24
MOORHEAD       MOCLDY    36  25  64 S12       29.94F
PARK RAPIDS    CLOUDY    28  16  60 SW8       29.92F WCI  20
MAHNOMEN       FLURRIES  30  24  78 S10       29.90F WCI  21
$$
MNZ006-009>011-018-025>026-070400-
   North Central Minnesota

CITY           SKY/WX    TMP DP  RH WIND       PRES   REMARKS
BAUDETTE       CLOUDY    27  16  63 SW12      29.83F WCI  17
FLAG ISLAND    CLOUDY    27  18  69 SW13G20   29.80F WCI  16
INTL FALLS     PTCLDY    24  10  55 SW7       29.86F WCI  16
WASKISH        CLOUDY    27  16  63 CALM      29.87F
BIG FORK       MOCLDY    21   9  58 S7        29.90F WCI  13
LONGVILLE      CLOUDY    28  12  50 SW5       29.93F WCI  23
GRAND RAPIDS   PTCLDY    25   9  50 S6        29.92F WCI  18
CRANE LAKE     MOCLDY    18   9  68 S3        29.90F
ORR            PTCLDY    23   9  54 CALM      29.87F
COOK           CLOUDY    25  10  54 SW5       29.90F WCI  19
WALKER         FAIR      28  15  56 SW8       29.91F WCI  20
$$
MNZ012-019>021-037-070400-
   Northeast Minnesota

CITY           SKY/WX    TMP DP  RH WIND       PRES   REMARKS
DULUTH         PTCLDY    23   8  52 W8        29.93F WCI  14
ELY            CLEAR     21   9  58 CALM      29.89F
HIBBING        MOCLDY    20   7  57 S3        29.91F
EVELETH        CLEAR     25   9  50 W5        29.92F WCI  19
DULUTH HARBOR  PTCLDY    27  12  54 CALM      29.98F
TWO HARBORS    PTCLDY    30  14  51 SW5       29.92F WCI  25
SILVER BAY     PTCLDY    28  10  47 SW3       29.90F
GRAND MARAIS     N/A     23   8  52 W5        29.92F WCI  17
G MARAIS ARPRT PTCLDY    19   3  49 W8        29.85F WCI   9
$$
MNZ029>031-032-039>041-046>048-054>057-064-070400-
   West Central Minnesota

CITY           SKY/WX    TMP DP  RH WIND       PRES   REMARKS
FERGUS FALLS   MOCLDY    28  21  74 S8        30.00S WCI  20
WHEATON        MOCLDY    30  25  80 S8        30.00F WCI  23
MORRIS         MOCLDY    28  23  80 S9        29.99F WCI  20
ALEXANDRIA     CLOUDY    28  21  75 S9        29.98F WCI  19
ELBOW LAKE     FAIR      26  23  87 S9        29.98F WCI  17
WADENA         CLOUDY    25  18  74 S5        29.96F WCI  19
GLENWOOD       MOCLDY    27  21  80 S8        30.01F WCI  18
APPLETON       CLOUDY    34  23  64 S7        30.02F WCI  28
BENSON         CLOUDY    30  21  69 S8        30.01F WCI  23
ORTONVILLE     MOCLDY    32  25  74 S7        30.00F WCI  26
MADISON        CLOUDY    34  27  75 S6        30.03F WCI  29
WILLMAR        FAIR      28  23  80 CALM      30.06F
$$
MNZ033>034-036-042>043-049>051-058-059-070400-
   Central Minnesota

CITY           SKY/WX    TMP DP  RH WIND       PRES   REMARKS
ST CLOUD       FAIR      26  17  68 SW6       30.03F WCI  19
SAUK CENTRE    MOCLDY    24  20  85 S3        30.02F
PAYNESVILLE    MOCLDY    25  19  78 SE5       30.04F WCI  19
AITKIN         MOCLDY    30  14  51 SW7       29.96F WCI  23
PINE RIVER     CLOUDY    28  16  59 S5        29.99F WCI  23
BRAINERD       MOCLDY    25  14  63 SW10      29.99F WCI  15
STAPLES        CLOUDY    27  18  69 S7        29.97F WCI  19
LONG PRAIRIE   CLOUDY    23  19  86 S6        30.00F WCI  16
LITTLE FALLS   PTCLDY    27  16  63 CALM      30.02F
LITCHFIELD     PTCLDY    27  21  80 CALM      30.06F
BUFFALO        CLEAR     25  18  73 CALM      30.06F
MAPLE LAKE     PTCLDY    26  20  77 CALM      30.06F
$$
MNZ037-044-045-052-053-070400-
   East Central Minnesota

CITY           SKY/WX    TMP DP  RH WIND       PRES   REMARKS
PRINCETON      PTCLDY    28  18  64 CALM      30.04F
MORA           PTCLDY    27  14  59 SW5       30.03F WCI  21
CAMBRIDGE      CLEAR     28  16  59 SW3       30.02F
RUSH CITY      PTCLDY    27  15  62 SW3       30.03S
MOOSE LAKE     MOCLDY    27  10  50 CALM      29.96F
HINCKLEY       FAIR      27  14  59 SW6       30.00F WCI  20
CLOQUET        PTCLDY    27   7  43 SW3       29.95F
MCGREGOR       MOCLDY    28  14  54 SW7       29.97F WCI  21
$$
MNZ071>073-080-081-089-090-097-098-070400-
   Southwest Minnesota

CITY           SKY/WX    TMP DP  RH WIND       PRES   REMARKS
MONTEVIDEO     CLOUDY    30  25  80 SW3       30.06F
GRANITE FALLS  CLOUDY    30  25  82 S6        30.08F WCI  24
CANBY          CLOUDY    33  27  77 SE6       30.04F WCI  28
MARSHALL       MOCLDY    30  23  74 CALM      30.08F
REDWOOD FALLS  MOCLDY    29  22  75 SW3       30.08S
OLIVIA         MOCLDY    28  25  86 CALM      30.06F
PIPESTONE      CLOUDY    34  28  80 SW5       30.05F WCI  30
WINDOM         PTCLDY    30  27  86 CALM      30.07S
WORTHINGTON    PTCLDY    30  25  80 CALM      30.09S
JACKSON        PTCLDY    32  28  86 W5        30.08S WCI  27
TRACY          MOCLDY    32  26  79 CALM      30.07S
SLAYTON        CLOUDY    33  26  75 CALM      30.07S
$$
MNZ065>067-074>077-082>085-091>093-070400-
   South Central Minnesota

CITY           SKY/WX    TMP DP  RH WIND       PRES   REMARKS
MANKATO        CLEAR     30  21  69 CALM      30.08F
NEW ULM        PTCLDY    27  19  74 CALM      30.09S
ST JAMES       CLOUDY    30  25  80 SW3       30.10S
FAIRMONT       PTCLDY    30  23  74 SW3       30.08F
GLENCOE        CLEAR     29  25  83 CALM      30.07F
FARIBAULT      CLEAR     27  21  80 SW3       30.08F
OWATONNA       CLEAR     27  21  80 CALM      30.08F
WASECA         CLEAR     30  25  80 W3        30.09F
ALBERT LEA     CLEAR     30  21  69 NW3       30.08S
$$
MNZ078>079-086>088-094>096-070400-
   Southeast Minnesota

CITY           SKY/WX    TMP DP  RH WIND       PRES   REMARKS
ROCHESTER      CLEAR     26  19  74 W12       30.07S WCI  16
RED WING       CLEAR     28  18  64 CALM      30.07S
STANTON        CLEAR     29  22  73 SW3       30.07R
DODGE CENTER   PTCLDY    28  21  74 W8        30.07R WCI  20
WINONA         CLEAR     34  23  64 W8        30.08R WCI  27
AUSTIN         CLEAR     30  25  80 W6        30.08S WCI  24
PRESTON        CLEAR     28  21  75 W10       30.07S WCI  19
$$
ABBREVIATIONS USED IN REMARKS
   TC - TEMPERATURES IN CELSIUS
  WCI - WIND CHILL INDEX
   HX - HEAT INDEX
  VSB - VISIBILITY
$$



USA.gov is the U.S. government's official web portal to all federal, state and local government web resources and services.